TimeCST,TemperatureF,Dew PointF,Humidity,Sea Level PressureIn,VisibilityMPH,Wind Direction,Wind SpeedMPH,Gust SpeedMPH,PrecipitationIn,Events,Conditions,WindDirDegrees,DateUTC
12:55 AM,21.7,8.2,56,30.33,10.0,North,6.9,-,N/A,,Clear,350,2013-02-20 06:55:00
1:55 AM,21.6,7.5,55,30.31,10.0,North,5.8,-,N/A,,Clear,360,2013-02-20 07:55:00
2:55 AM,20.8,8.6,59,30.32,10.0,Calm,Calm,-,N/A,,Clear,0,2013-02-20 08:55:00
3:55 AM,20.3,8.8,61,30.32,10.0,Calm,Calm,-,N/A,,Clear,0,2013-02-20 09:55:00
4:55 AM,20.3,8.2,60,30.32,10.0,NNW,5.8,-,N/A,,Clear,340,2013-02-20 10:55:00
5:55 AM,20.1,7.3,58,30.32,10.0,North,5.8,-,N/A,,Clear,360,2013-02-20 11:55:00
6:55 AM,19.9,7.5,59,30.35,10.0,North,4.6,-,N/A,,Overcast,350,2013-02-20 12:55:00
7:55 AM,20.5,6.3,54,30.39,10.0,North,4.6,-,N/A,,Overcast,350,2013-02-20 13:55:00
8:55 AM,21.4,7.7,56,30.38,10.0,NE,4.6,-,N/A,,Scattered Clouds,40,2013-02-20 14:55:00
9:55 AM,21.9,7.9,55,30.38,10.0,ENE,6.9,-,N/A,,Mostly Cloudy,60,2013-02-20 15:55:00
10:55 AM,23.2,7.9,52,30.38,10.0,NE,5.8,-,N/A,,Mostly Cloudy,50,2013-02-20 16:55:00
11:55 AM,24.8,7.9,49,30.38,10.0,Calm,Calm,-,N/A,,Mostly Cloudy,0,2013-02-20 17:55:00
12:55 PM,26.2,8.2,47,30.34,10.0,ENE,4.6,-,N/A,,Overcast,60,2013-02-20 18:55:00
1:55 PM,27.5,9.0,46,30.30,10.0,NNE,4.6,-,N/A,,Overcast,20,2013-02-20 19:55:00
2:55 PM,29.5,8.2,41,30.25,10.0,ENE,8.1,-,N/A,,Overcast,60,2013-02-20 20:55:00
3:55 PM,29.7,8.4,41,30.26,10.0,ENE,4.6,-,N/A,,Overcast,60,2013-02-20 21:55:00
4:55 PM,29.3,9.1,43,30.25,10.0,ENE,6.9,-,N/A,,Overcast,60,2013-02-20 22:55:00
5:55 PM,29.1,10.6,46,30.24,10.0,ENE,5.8,-,N/A,,Overcast,70,2013-02-20 23:55:00
6:55 PM,28.8,10.9,47,30.25,10.0,NE,5.8,-,N/A,,Overcast,50,2013-02-21 00:55:00
7:55 PM,28.4,11.7,50,30.23,10.0,ENE,6.9,-,N/A,,Overcast,60,2013-02-21 01:55:00
8:55 PM,28.0,12.6,52,30.23,10.0,NE,8.1,-,N/A,,Overcast,50,2013-02-21 02:55:00
9:55 PM,28.0,13.3,54,30.23,10.0,ENE,6.9,-,N/A,,Overcast,70,2013-02-21 03:55:00
10:55 PM,28.2,13.6,54,30.22,10.0,East,8.1,-,N/A,,Overcast,80,2013-02-21 04:55:00
11:55 PM,28.2,14.0,55,30.22,10.0,East,9.2,-,N/A,,Overcast,80,2013-02-21 05:55:00